DW1009 Weather Reports


Display with metric or nautical units.
time (UTC)temp
F
wind
direction
speed
MPH
gust
MPH
rain 1hr
in
rain 24hr
in
rain mn
in
humidity
%
barometer
mb
20260509014351 63 259 3.0 6.0 0.00 0.00 0.00 90 1011.4
20260509013351 63 9 0.0 6.0 0.00 0.00 0.00 90 1011.4
20260509012351 63 246 2.0 7.0 0.00 0.00 0.00 90 1011.5
20260509003350 65 253 2.0 5.0 0.00 0.00 0.00 88 1011.4
20260509001350 65 298 1.0 7.0 0.00 0.00 0.00 88 1011.2
20260509000350 65 343 4.0 7.0 0.00 0.00 0.00 88 1011.3
20260508235351 65 217 2.0 8.0 0.00 0.00 0.00 87 1011.2
20260508233350 66 229 4.0 8.0 0.00 0.00 0.00 87 1011.4
20260508232351 66 240 6.0 8.0 0.00 0.00 0.00 85 1011.5
20260508231351 66 294 1.0 8.0 0.00 0.00 0.00 84 1011.6
20260508230351 67 263 4.0 7.0 0.00 0.00 0.00 83 1011.6
20260508225351 67 248 1.0 7.0 0.00 0.00 0.00 83 1011.7
20260508224351 67 278 4.0 8.0 0.00 0.00 0.00 83 1011.8
20260508223351 67 243 1.0 9.0 0.00 0.00 0.00 83 1011.9
20260508222350 67 306 2.0 9.0 0.00 0.00 0.00 83 1012.2
20260508221351 67 231 3.0 8.0 0.00 0.00 0.00 84 1012.3
20260508215351 67 211 3.0 9.0 0.00 0.00 0.00 85 1012.8
20260508214351 67 252 3.0 9.0 0.00 0.00 0.00 84 1012.8
20260508213351 67 235 6.0 10.0 0.00 0.00 0.00 84 1012.9
20260508212350 67 240 4.0 8.0 0.00 0.00 0.00 83 1012.9
20260508211350 67 265 4.0 8.0 0.00 0.00 0.00 85 1012.9
20260508210350 67 334 2.0 8.0 0.00 0.00 0.00 84 1012.9
20260508205351 67 281 6.0 8.0 0.00 0.00 0.00 84 1013.4
20260508204350 66 290 3.0 7.0 0.00 0.00 0.00 85 1013.4
20260508203350 66 230 4.0 8.0 0.00 0.00 0.00 85 1013.1
20260508202351 66 250 2.0 8.0 0.00 0.00 0.00 86 1013.6
20260508201350 66 248 3.0 8.0 0.00 0.00 0.00 85 1013.5
20260508200350 66 256 2.0 7.0 0.00 0.00 0.00 85 1013.5
20260508195351 67 224 4.0 8.0 0.00 0.00 0.00 85 1013.3
20260508194351 66 250 4.0 7.0 0.00 0.00 0.00 85 1013.5
20260508193350 66 250 3.0 7.0 0.00 0.00 0.00 86 1013.6
20260508192351 65 246 2.0 9.0 0.00 0.00 0.00 87 1013.6
20260508190351 65 253 3.0 7.0 0.00 0.00 0.00 88 1014.0
20260508185350 65 257 2.0 6.0 0.00 0.00 0.00 88 1014.2
20260508183350 64 302 1.0 6.0 0.00 0.00 0.00 88 1014.3
20260508182350 64 272 4.0 6.0 0.00 0.00 0.00 89 1014.3
20260508181350 64 251 4.0 7.0 0.00 0.00 0.00 89 1014.2
20260508175350 65 195 2.0 6.0 0.00 0.00 0.00 87 1014.2
20260508173350 66 158 1.0 4.0 0.00 0.00 0.00 85 1014.3
20260508172350 65 171 1.0 3.0 0.00 0.00 0.00 86 1014.4
20260508171350 65 140 1.0 4.0 0.00 0.00 0.00 86 1014.5
20260508170350 65 246 1.0 3.0 0.00 0.00 0.00 86 1014.3
20260508165350 65 150 1.0 4.0 0.00 0.00 0.00 86 1014.3
20260508164350 65 89 1.0 4.0 0.00 0.00 0.00 87 1014.2
20260508163350 64 136 1.0 4.0 0.00 0.00 0.00 88 1014.2
20260508161350 64 143 1.0 4.0 0.00 0.00 0.00 89 1014.3
20260508160350 64 115 1.0 6.0 0.00 0.00 0.00 89 1014.2
20260508155351 64 170 0.0 4.0 0.00 0.00 0.00 89 1014.2
20260508154350 63 109 1.0 4.0 0.00 0.00 0.00 90 1014.1
20260508153351 63 144 2.0 4.0 0.00 0.00 0.00 90 1014.1
20260508152350 63 107 1.0 3.0 0.00 0.00 0.00 91 1014.2
20260508151350 63 71 1.0 3.0 0.00 0.00 0.00 91 1014.2
20260508145350 62 128 1.0 4.0 0.00 0.00 0.00 92 1014.2
20260508144350 62 75 0.0 3.0 0.00 0.00 0.00 92 1014.3
20260508143350 62 92 2.0 3.0 0.00 0.00 0.00 93 1014.3
20260508141350 62 92 1.0 3.0 0.00 0.00 0.00 93 1014.2
20260508135350 62 141 1.0 5.0 0.00 0.00 0.00 93 1013.9
20260508134350 62 150 0.0 3.0 0.00 0.00 0.00 93 1014.0
20260508132350 62 154 1.0 3.0 0.00 0.00 0.00 93 1014.0
20260508131349 62 146 0.0 3.0 0.00 0.00 0.00 93 1013.7
20260508130351 62 188 1.0 4.0 0.00 0.00 0.00 93 1013.7
20260508124349 62 95 0.0 3.0 0.00 0.00 0.00 92 1013.6
20260508123349 62 88 0.0 3.0 0.00 0.00 0.00 92 1013.6
20260508122351 62 139 1.0 3.0 0.00 0.00 0.00 92 1013.5
20260508121350 62 149 2.0 3.0 0.00 0.00 0.00 92 1013.5
20260508120349 62 141 0.0 3.0 0.00 0.00 0.00 92 1013.4
20260508115349 62 121 1.0 3.0 0.00 0.00 0.00 91 1013.4
20260508113349 62 152 0.0 3.0 0.00 0.00 0.00 91 1013.4
20260508112350 62 86 0.0 3.0 0.00 0.00 0.00 91 1013.4
20260508111350 62 167 1.0 3.0 0.00 0.00 0.00 91 1013.3
20260508110349 62 157 0.0 3.0 0.00 0.00 0.00 91 1013.2
20260508104349 62 138 0.0 2.0 0.00 0.00 0.00 91 1013.3
20260508102351 62 155 0.0 3.0 0.00 0.00 0.00 92 1013.3
20260508101349 62 146 1.0 4.0 0.00 0.00 0.00 92 1013.4
20260508100350 62 128 1.0 4.0 0.00 0.00 0.00 93 1013.2
20260508095349 62 116 1.0 2.0 0.00 0.00 0.00 94 1013.3
20260508094349 61 276 0.0 1.0 0.00 0.00 0.00 94 1013.4
20260508093349 61 276 0.0 1.0 0.00 0.00 0.00 94 1013.4
20260508092350 61 260 0.0 1.0 0.00 0.00 0.00 94 1013.5
20260508091349 61 252 0.0 2.0 0.00 0.00 0.00 94 1013.5
20260508090349 61 210 0.0 2.0 0.00 0.00 0.00 94 1013.7
20260508084350 61 299 1.0 1.0 0.00 0.00 0.00 95 1013.7
20260508083350 61 251 0.0 1.0 0.00 0.00 0.00 94 1013.7
20260508082350 61 251 1.0 2.0 0.00 0.00 0.00 95 1013.7
20260508081349 61 223 0.0 2.0 0.00 0.00 0.00 95 1013.8
20260508080349 61 234 1.0 3.0 0.00 0.00 0.00 95 1013.9
20260508075349 60 269 0.0 3.0 0.00 0.00 0.00 95 1013.9
20260508073350 60 271 0.0 2.0 0.00 0.00 0.00 94 1013.9
20260508072349 60 218 0.0 2.0 0.00 0.00 0.00 94 1013.9
20260508071350 61 153 1.0 4.0 0.00 0.00 0.00 94 1013.9
20260508070349 61 259 1.0 3.0 0.00 0.00 0.00 94 1014.0
20260508065349 61 170 0.0 4.0 0.00 0.00 0.00 94 1013.9
20260508064349 61 181 1.0 4.0 0.00 0.00 0.00 94 1013.8
20260508063349 61 241 4.0 5.0 0.00 0.00 0.00 94 1013.9
20260508062349 61 217 3.0 5.0 0.00 0.00 0.00 94 1013.7
20260508061349 61 154 2.0 7.0 0.00 0.00 0.00 94 1013.7
20260508060349 61 221 1.0 4.0 0.00 0.00 0.00 94 1013.8
20260508055349 61 211 2.0 5.0 0.00 0.00 0.00 93 1013.8
20260508054349 61 190 2.0 4.0 0.00 0.00 0.00 93 1013.8
20260508052349 61 217 1.0 7.0 0.00 0.00 0.00 93 1013.8
20260508051349 61 206 1.0 5.0 0.00 0.00 0.00 93 1013.9
20260508050349 61 150 3.0 5.0 0.00 0.00 0.00 93 1013.8
20260508044349 62 239 3.0 6.0 0.00 0.00 0.00 94 1013.6
20260508043349 62 211 3.0 5.0 0.00 0.00 0.00 94 1013.5
20260508041349 62 273 0.0 3.0 0.00 0.00 0.00 94 1013.2
20260508040349 62 257 1.0 2.0 0.00 0.00 0.00 94 1013.2
20260508033349 62 269 1.0 4.0 0.00 0.00 0.00 93 1012.8
20260508032349 62 5 1.0 4.0 0.00 0.00 0.00 92 1012.6
20260508024349 63 178 1.0 6.0 0.00 0.00 0.00 90 1012.1
20260508022349 63 252 2.0 5.0 0.00 0.00 0.00 89 1012.2
20260508021349 64 284 1.0 7.0 0.00 0.00 0.00 88 1012.2
20260508020349 64 229 2.0 7.0 0.00 0.00 0.00 89 1012.2
20260508015349 64 222 3.0 7.0 0.00 0.00 0.00 88 1012.1